Location: Lugrin
(46.4033°N, 6.6674°E)
Time: 01:58:46
(UTC+00:00)

ATLAS 2AS CENTAUR R/B - Pass Details

Date: 18 September 2020
Orbit: 939 x 1273 km, 63.7° (Epoch: 27 October)

Event Time Altitude Azimuth Distance (km) Brightness Sun altitude
Rises 21:01:12 0° 217° (SW) 4,190 5.7 -32.4°
Reaches altitude 10° 21:03:57 10° 217° (SW) 3,244 5.1 -32.8°
Enters shadow 21:04:49 14° 218° (SW) 2,956 4.9 -32.9°
Exits shadow 21:11:57 88° 324° (NW) 1,279 2.9 -33.7°
Drops below altitude 10° 21:19:51 10° 39° (NE) 3,227 5.3 -34.6°
Sets 21:22:35 0° 40° (NE) 4,167 5.9 -34.9°
